FW7632 Weather Reports


Display with metric or nautical units.
time (UTC)temp
F
wind
direction
speed
MPH
gust
MPH
rain 1hr
in
rain 24hr
in
rain mn
in
humidity
%
barometer
mb
20260506213009 49 333 4.0 10.0 0.00 0.31 0.30 1 1008.2
20260506211506 49 305 3.0 9.0 0.00 0.31 0.30 1 1007.8
20260506210100 49 313 3.0 10.0 0.00 0.31 0.30 1 1007.5
20260506204556 49 318 6.0 12.0 0.01 0.31 0.30 1 1007.2
20260506203052 49 315 4.0 10.0 0.01 0.31 0.30 1 1007.0
20260506201547 49 298 3.0 9.0 0.02 0.39 0.30 1 1006.5
20260506200046 50 284 4.0 9.0 0.03 0.39 0.30 1 1006.4
20260506194544 51 304 5.0 10.0 0.02 0.38 0.28 1 1006.3
20260506193033 51 288 4.0 11.0 0.02 0.38 0.28 1 1006.3
20260506191529 51 257 2.0 6.0 0.01 0.37 0.28 1 1005.9
20260506190024 51 296 2.0 7.0 0.00 0.36 0.27 1 1005.7
20260506184519 52 247 2.0 10.0 0.00 0.36 0.27 1 1005.6
20260506183015 52 277 3.0 10.0 0.01 0.36 0.27 1 1005.5
20260506181516 52 274 5.0 11.0 0.01 0.37 0.27 1 1005.1
20260506180014 54 267 4.0 8.0 0.01 0.37 0.27 1 1005.0
20260506174501 55 280 3.0 10.0 0.01 0.37 0.27 1 1004.5
20260506173111 58 315 6.0 11.0 0.00 0.36 0.26 1 1004.4
20260506171557 60 300 4.0 7.0 0.00 0.36 0.26 1 1004.0
20260506170059 60 277 4.0 9.0 0.00 0.36 0.26 1 1004.0
20260506164554 60 255 2.0 7.0 0.00 0.36 0.26 1 1004.1
20260506163042 60 245 2.0 10.0 0.01 0.36 0.26 1 1004.0
20260506161535 59 242 4.0 9.0 0.02 0.36 0.26 1 1003.9
20260506160030 59 251 2.0 10.0 0.03 0.36 0.26 1 1004.1
20260506154526 59 267 1.0 7.0 0.04 0.36 0.26 1 1004.2
20260506153021 59 274 2.0 10.0 0.03 0.35 0.25 1 1004.0
20260506151523 59 214 3.0 8.0 0.03 0.34 0.24 1 1004.4
20260506150018 59 242 1.0 7.0 0.02 0.33 0.23 1 1004.1
20260506144513 59 171 2.0 6.0 0.02 0.32 0.22 1 1004.1
20260506143010 58 26 0.0 3.0 0.03 0.32 0.22 1 1004.1
20260506141505 58 26 3.0 5.0 0.04 0.31 0.21 1 1004.1
20260506140001 57 348 1.0 3.0 0.07 0.31 0.21 1 1004.2
20260506134556 57 348 0.0 2.0 0.10 0.30 0.20 1 1004.3
20260506133103 57 221 1.0 3.0 0.12 0.28 0.19 1 1004.6
20260506131548 57 221 0.0 3.0 0.12 0.27 0.17 1 1005.0
20260506130044 57 221 1.0 5.0 0.10 0.24 0.14 1 1005.1
20260506124541 57 173 2.0 6.0 0.07 0.20 0.10 1 1005.2
20260506123041 56 218 1.0 5.0 0.04 0.17 0.07 1 1004.8
20260506121531 55 94 0.0 2.0 0.03 0.18 0.05 1 1004.6
20260506120036 55 90 1.0 3.0 0.02 0.17 0.04 1 1004.6
20260506114525 54 89 0.0 1.0 0.01 0.16 0.03 1 1005.1
20260506113019 54 89 0.0 1.0 0.01 0.16 0.03 1 1005.1
20260506111515 54 89 0.0 2.0 0.01 0.15 0.02 1 1005.1
20260506110010 54 89 0.0 1.0 0.01 0.15 0.02 1 1005.0
20260506104505 54 88 0.0 1.0 0.01 0.15 0.02 1 1005.1
20260506103004 54 88 0.0 1.0 0.02 0.15 0.02 1 1005.1
20260506101557 54 88 0.0 1.0 0.01 0.14 0.01 1 1004.8
20260506100054 54 88 0.0 2.0 0.01 0.14 0.01 1 1004.6
20260506094549 54 88 0.0 2.0 0.01 0.14 0.01 1 1004.7
20260506093048 54 88 0.0 2.0 0.00 0.13 0.00 1 1004.7
20260506091541 54 88 0.0 4.0 0.00 0.13 0.00 1 1004.9
20260506090035 55 88 2.0 3.0 0.00 0.13 0.00 1 1004.9
20260506084532 55 88 0.0 2.0 0.00 0.13 0.00 1 1005.3
20260506083026 55 88 0.0 2.0 0.00 0.13 0.00 1 1005.4
20260506081522 55 88 0.0 2.0 0.00 0.13 0.00 1 1005.2
20260506073009 55 88 0.0 2.0 0.00 0.13 0.00 1 1005.1
20260506071507 55 88 0.0 6.0 0.00 0.13 0.00 1 1005.1
20260506070117 55 101 0.0 3.0 0.00 0.13 0.00 1 1005.2
20260506061546 55 106 0.0 9.0 0.00 0.13 0.00 1 1005.8
20260506044524 56 73 1.0 5.0 0.00 0.13 0.00 1 1006.9
20260506043017 56 86 2.0 6.0 0.00 0.13 0.00 1 1006.8
20260506041510 56 109 1.0 6.0 0.00 0.13 0.13 1 1006.9
20260506040006 57 86 2.0 8.0 0.00 0.13 0.13 1 1007.1
20260506034502 57 90 3.0 6.0 0.00 0.13 0.13 1 1007.3
20260506033103 57 133 4.0 8.0 0.00 0.13 0.13 1 1007.6
20260506031601 58 87 2.0 6.0 0.00 0.13 0.13 1 1007.3
20260506030108 58 76 3.0 7.0 0.00 0.13 0.13 1 1007.3
20260506024545 59 36 1.0 4.0 0.00 0.13 0.13 1 1007.3
20260506024515 59 36 1.0 5.0 0.00 0.13 0.13 1 1007.3
20260506023040 61 346 6.0 11.0 0.00 0.13 0.13 1 1007.4
20260506021536 61 341 0.0 3.0 0.00 0.13 0.13 1 1006.9
20260506020031 61 341 2.0 8.0 0.00 0.13 0.13 1 1006.8
20260506014527 62 48 2.0 6.0 0.00 0.13 0.13 1 1006.6
20260506013024 62 349 0.0 2.0 0.00 0.13 0.13 1 1006.4
20260506011520 63 348 2.0 8.0 0.00 0.13 0.13 1 1006.0
20260506010014 62 348 3.0 8.0 0.00 0.13 0.13 1 1006.0
20260506004509 62 203 1.0 2.0 0.00 0.13 0.13 1 1005.4
20260506003005 62 203 0.0 2.0 0.00 0.13 0.13 1 1005.1
20260506001604 63 203 0.0 0.0 0.00 0.13 0.13 1 1005.0
20260506000056 63 203 0.0 2.0 0.00 0.13 0.13 1 1004.9
20260505234611 64 203 1.0 2.0 0.00 0.13 0.13 1 1004.8
20260505233046 64 203 0.0 1.0 0.00 0.13 0.13 1 1004.9
20260505231543 64 203 0.0 2.0 0.01 0.13 0.13 1 1004.9
20260505230038 65 203 1.0 2.0 0.01 0.13 0.13 1 1004.7
20260505224534 65 203 1.0 2.0 0.01 0.13 0.13 1 1004.7
20260505223029 66 203 0.0 3.0 0.01 0.13 0.13 1 1004.6
20260505221525 67 202 0.0 5.0 0.00 0.12 0.12 1 1004.9
20260505220020 67 201 0.0 2.0 0.00 0.12 0.12 1 1004.1
20260505214520 68 199 0.0 3.0 0.00 0.12 0.12 1 1004.2